AE7MK-13 Weather Reports


time (UTC)temp
C
wind
direction
speed
KPH
gust
KPH
rain 1hr
cm
rain 24hr
cm
rain mn
cm
humidity
%
barometer
mb
20260507185003 16 11 3.2 11.3 0.00 0.00 0.00 37 1016.9
20260507184003 16 330 1.6 8.0 0.00 0.00 0.00 36 1016.9
20260507183003 16 90 3.2 9.7 0.00 0.00 0.00 37 1016.9
20260507182003 16 66 3.2 9.7 0.00 0.00 0.00 36 1016.9
20260507181212 16 18 3.2 12.9 0.00 0.00 0.00 35 1016.9
20260507180004 16 1 3.2 11.3 0.00 0.00 0.00 35 1016.9
20260507175003 16 2 6.4 14.5 0.00 0.00 0.00 34 1017.0
20260507174003 16 350 6.4 14.5 0.00 0.00 0.00 34 1017.0
20260507173003 16 349 3.2 14.5 0.00 0.00 0.00 34 1016.8
20260507172214 15 318 3.2 14.5 0.00 0.00 0.00 35 1016.8
20260507171003 15 317 4.8 16.1 0.00 0.00 0.00 36 1016.6
20260507170004 15 339 3.2 16.1 0.00 0.00 0.00 36 1016.7
20260507165214 15 341 3.2 16.1 0.00 0.00 0.00 35 1016.7
20260507164003 15 328 3.2 12.9 0.00 0.00 0.00 38 1016.7
20260507163003 15 324 3.2 11.3 0.00 0.00 0.00 38 1016.6
20260507162003 15 318 3.2 12.9 0.00 0.00 0.00 38 1016.5
20260507161003 14 316 3.2 9.7 0.00 0.00 0.00 38 1016.7
20260507160003 14 338 1.6 6.4 0.00 0.00 0.00 39 1016.7
20260507155213 14 355 1.6 9.7 0.00 0.00 0.00 40 1016.7
20260507154004 14 360 1.6 8.0 0.00 0.00 0.00 41 1016.7
20260507153003 13 317 1.6 8.0 0.00 0.00 0.00 43 1016.7
20260507152003 13 304 4.8 9.7 0.00 0.00 0.00 42 1016.8
20260507151003 13 310 3.2 9.7 0.00 0.00 0.00 45 1016.7
20260507150004 12 302 3.2 9.7 0.00 0.00 0.00 46 1016.7
20260507145003 12 311 6.4 12.9 0.00 0.00 0.00 49 1016.7
20260507144003 11 310 8.0 14.5 0.00 0.00 0.00 48 1016.4
20260507143003 11 310 6.4 14.5 0.00 0.00 0.00 49 1016.4
20260507142003 11 310 3.2 12.9 0.00 0.00 0.00 48 1016.1
20260507141003 11 319 1.6 6.4 0.00 0.00 0.00 47 1016.0
20260507140003 11 320 0.0 6.4 0.00 0.00 0.00 48 1015.9
20260507135003 11 343 0.0 1.6 0.00 0.00 0.00 50 1015.7
20260507134212 10 317 0.0 4.8 0.00 0.00 0.00 52 1015.5
20260507133003 10 323 0.0 4.8 0.00 0.00 0.00 54 1015.4
20260507132003 9 316 3.2 8.0 0.00 0.00 0.00 54 1015.3
20260507131003 9 317 3.2 14.5 0.00 0.00 0.00 55 1015.4
20260507130004 8 315 3.2 14.5 0.00 0.00 0.00 55 1015.2
20260507125003 8 313 4.8 16.1 0.00 0.00 0.00 55 1015.1
20260507124003 8 318 1.6 11.3 0.00 0.00 0.00 56 1015.2
20260507123003 8 316 3.2 12.9 0.00 0.00 0.00 55 1015.1
20260507122214 8 316 4.8 14.5 0.00 0.00 0.00 55 1015.2
20260507121214 8 315 8.0 19.3 0.00 0.00 0.00 53 1015.1
20260507120003 8 314 9.7 20.9 0.00 0.00 0.00 52 1015.2
20260507115003 9 314 6.4 17.7 0.00 0.00 0.00 51 1015.1
20260507114003 9 312 9.7 20.9 0.00 0.00 0.00 50 1014.9
20260507113003 9 310 6.4 19.3 0.00 0.00 0.00 51 1015.0
20260507112214 8 314 3.2 14.5 0.00 0.00 0.00 52 1014.9
20260507111004 8 314 1.6 9.7 0.00 0.00 0.00 55 1014.9
20260507110213 7 305 3.2 8.0 0.00 0.00 0.00 55 1014.9
20260507105003 8 0 0.0 0.0 0.00 0.00 0.00 54 1014.9
20260507104213 8 0 0.0 0.0 0.00 0.00 0.00 54 1015.1
20260507103003 8 306 4.8 14.5 0.00 0.00 0.00 54 1014.9
20260507102213 8 308 9.7 16.1 0.00 0.00 0.00 53 1014.7
20260507101003 8 310 11.3 25.7 0.00 0.00 0.00 53 1014.6
20260507100003 8 311 17.7 25.7 0.00 0.00 0.00 52 1014.5
20260507095003 9 311 19.3 27.4 0.00 0.00 0.00 51 1014.5
20260507094213 9 312 11.3 25.7 0.00 0.00 0.00 50 1014.6
20260507093003 9 310 12.9 22.5 0.00 0.00 0.00 49 1014.6
20260507092003 9 311 4.8 14.5 0.00 0.00 0.00 49 1014.8
20260507091003 10 302 14.5 20.9 0.00 0.00 0.00 46 1014.6
20260507090004 10 299 14.5 20.9 0.00 0.00 0.00 46 1014.6
20260507085213 10 302 17.7 27.4 0.00 0.00 0.00 46 1014.5
20260507084213 10 306 19.3 25.7 0.00 0.00 0.00 48 1014.5
20260507083212 10 306 19.3 37.0 0.00 0.00 0.00 47 1014.7
20260507082213 10 302 22.5 30.6 0.00 0.00 0.00 46 1014.3
20260507081212 10 300 22.5 35.4 0.00 0.00 0.00 47 1014.3
20260507080004 10 297 24.1 32.2 0.00 0.00 0.00 49 1014.4
20260507075004 10 299 24.1 35.4 0.00 0.00 0.00 54 1014.7
20260507074003 10 301 22.5 33.8 0.00 0.00 0.00 55 1014.9
20260507073214 10 302 25.7 40.2 0.00 0.00 0.00 53 1014.6
20260507072003 10 301 29.0 41.8 0.00 0.00 0.00 51 1014.5
20260507071004 10 306 27.4 40.2 0.00 0.00 0.00 49 1014.5
20260507070007 11 303 32.2 46.7 0.00 0.00 0.00 41 1014.1
20260507065003 10 306 32.2 45.1 0.00 0.00 0.00 52 1014.1
20260507064003 10 306 35.4 48.3 0.00 0.00 0.00 52 1014.0
20260507063214 11 303 33.8 49.9 0.00 0.00 0.00 50 1013.9
20260507062004 11 301 37.0 51.5 0.00 0.00 0.00 48 1013.8
20260507061003 11 301 33.8 51.5 0.00 0.00 0.00 49 1013.8
20260507060003 11 299 25.7 37.0 0.00 0.00 0.00 50 1014.4
20260507055003 11 289 20.9 37.0 0.00 0.00 0.00 50 1014.6
20260507054003 11 296 30.6 48.3 0.00 0.00 0.00 49 1014.1
20260507053004 12 303 35.4 48.3 0.00 0.00 0.00 48 1014.0
20260507052003 12 302 40.2 51.5 0.00 0.00 0.00 45 1014.2
20260507051213 12 307 33.8 48.3 0.00 0.00 0.00 45 1014.6
20260507050003 12 301 32.2 54.7 0.00 0.00 0.00 47 1014.8
20260507045003 12 299 29.0 43.5 0.00 0.00 0.00 45 1014.8
20260507044003 12 296 25.7 40.2 0.00 0.00 0.00 48 1015.0
20260507043213 12 299 24.1 30.6 0.00 0.00 0.00 47 1015.1
20260507042003 13 300 22.5 33.8 0.00 0.00 0.00 46 1015.1
20260507041003 13 299 22.5 32.2 0.00 0.00 0.00 44 1015.1
20260507040003 13 299 20.9 32.2 0.00 0.00 0.00 43 1015.2
20260507035003 13 301 22.5 35.4 0.00 0.00 0.00 43 1015.2
20260507034003 13 306 20.9 30.6 0.00 0.00 0.00 44 1015.3
20260507033003 13 308 16.1 27.4 0.00 0.00 0.00 45 1015.2
20260507032003 13 308 12.9 22.5 0.00 0.00 0.00 46 1015.2
20260507031003 14 308 16.1 25.7 0.00 0.00 0.00 44 1015.2
20260507030003 15 305 19.3 29.0 0.00 0.00 0.00 42 1015.1
20260507025213 15 295 20.9 37.0 0.00 0.00 0.00 39 1015.0
20260507024003 15 296 17.7 29.0 0.00 0.00 0.00 37 1015.2
20260507023003 15 300 19.3 30.6 0.00 0.00 0.00 37 1015.2
20260507022003 16 298 20.9 30.6 0.00 0.00 0.00 36 1015.3
20260507021003 15 296 16.1 24.1 0.00 0.00 0.00 36 1015.3
20260507020003 15 297 20.9 35.4 0.00 0.00 0.00 36 1015.3
20260507015003 16 290 25.7 41.8 0.00 0.00 0.00 35 1015.2
20260507014004 16 290 29.0 45.1 0.00 0.00 0.00 32 1015.1
20260507013003 16 290 29.0 48.3 0.00 0.00 0.00 33 1015.1
20260507012003 16 292 27.4 43.5 0.00 0.00 0.00 34 1015.2
20260507011214 16 294 24.1 35.4 0.00 0.00 0.00 36 1015.1
20260507010003 16 298 24.1 35.4 0.00 0.00 0.00 34 1015.2
20260507005004 16 301 19.3 35.4 0.00 0.00 0.00 32 1015.2
20260507004003 16 296 20.9 30.6 0.00 0.00 0.00 31 1015.2
20260507003003 16 289 20.9 33.8 0.00 0.00 0.00 31 1015.3
20260507002213 16 293 24.1 41.8 0.00 0.00 0.00 30 1015.3
20260507001003 16 287 20.9 29.0 0.00 0.00 0.00 31 1015.1
20260507000004 16 288 22.5 32.2 0.00 0.00 0.00 31 1015.2
20260506235003 17 297 24.1 35.4 0.00 0.00 0.00 31 1015.3
20260506234213 17 296 24.1 35.4 0.00 0.00 0.00 30 1015.3
20260506233003 17 296 22.5 35.4 0.00 0.00 0.00 30 1015.2
20260506232003 17 297 22.5 33.8 0.00 0.00 0.00 31 1015.2
20260506231003 17 297 24.1 32.2 0.00 0.00 0.00 31 1015.2
20260506230005 17 292 20.9 33.8 0.00 0.00 0.00 29 1015.2
20260506225003 18 292 22.5 35.4 0.00 0.00 0.00 27 1015.3
20260506224003 18 292 20.9 30.6 0.00 0.00 0.00 27 1015.4
20260506223004 18 290 20.9 33.8 0.00 0.00 0.00 25 1015.5
20260506222003 18 291 22.5 37.0 0.00 0.00 0.00 26 1015.6
20260506221003 18 291 25.7 37.0 0.00 0.00 0.00 25 1015.6
20260506220003 18 292 25.7 38.6 0.00 0.00 0.00 22 1015.7
20260506215003 19 287 22.5 35.4 0.00 0.00 0.00 22 1015.6
20260506214003 19 284 19.3 32.2 0.00 0.00 0.00 23 1015.6
20260506213003 19 276 19.3 29.0 0.00 0.00 0.00 24 1015.5
20260506212212 20 275 19.3 29.0 0.00 0.00 0.00 23 1015.6
20260506211003 20 292 24.1 37.0 0.00 0.00 0.00 25 1015.6
20260506210212 20 293 25.7 38.6 0.00 0.00 0.00 25 1015.5
20260506205214 20 279 25.7 37.0 0.00 0.00 0.00 26 1015.4
20260506204003 21 276 27.4 40.2 0.00 0.00 0.00 24 1015.3
20260506203003 22 288 20.9 38.6 0.00 0.00 0.00 25 1015.2
20260506202003 22 273 17.7 33.8 0.00 0.00 0.00 28 1015.1
20260506201003 21 280 16.1 24.1 0.00 0.00 0.00 29 1015.2
20260506200004 21 259 14.5 29.0 0.00 0.00 0.00 32 1015.3
20260506195003 21 241 17.7 27.4 0.00 0.00 0.00 30 1015.2
20260506194003 21 265 14.5 25.7 0.00 0.00 0.00 32 1015.3
20260506193003 21 256 19.3 35.4 0.00 0.00 0.00 32 1015.1
20260506192003 21 264 17.7 29.0 0.00 0.00 0.00 33 1015.3
20260506191003 20 291 17.7 25.7 0.00 0.00 0.00 35 1015.4
20260506190004 21 299 16.1 25.7 0.00 0.00 0.00 33 1015.6